Weather in Koktobe

Kazakhstan     51°31′44″N   77°28′08″E
temp.,
°C
wind,
m/s
gust,
m/s
humid.,
%
clouds,
%
prec.,
mm/h
press.,
hPa
HPBL,
m
27 february, sat
sat2700:00−27sw348821 0.0 104031
03:00−28wsw348818 0.0 103926
06:00−29sw34879 0.0 104023
09:00−28sw33870 0.0 103948
12:00−23ssw34820 0.0 1039242
15:00−20s34830 0.0 1038366
18:00−22se44890 0.0 103746
21:00−24sse458814 0.0 103774
28 february, sun
sun2800:00−24sse458716 0.0 103666
03:00−23sse458439 0.0 103467
06:00−20se478464 0.0 1032122
09:00−16sse5978100 0.0 1028218
12:00−8s71093100 0.1 1024542
15:00−4s71094100 0.6 1021749
18:00−3s61193100 0.8 1017446
21:00−3s71196100 1.0 1015441
1 march, mon
mon100:00−1s91681100 2.4 1012763
03:00+2sw91780100 0.3 1011857
06:00+2sw81786100 0.5 1011658
09:00+1sw51387100 0.1 1011551
12:00+2sw61596100 0.1 1011615
15:00+2wsw715100100 0.2 1011609
18:000wnw5109798 0.8 1012559
21:00−3w6138298 0.1 1015298
2 march, tue
tue200:00−7w479282 0.1 1018137
03:00−12w239788 0.0 101921
06:00−14w119886 0.1 102020
09:00−11s1293100 0.0 101936
12:00−7sse2387100 0.0 1017240
15:00−3se3495100 0.1 1015245
18:00−2sse2398100 0.8 101379
21:00−2sw4798100 0.1 1013153
3 march, wed
wed300:00−7wnw6119397 0.3 1015401
03:00−14w5129193 0.0 1017298
06:00−16wsw5128846 0.0 1020313
09:00−17w5119051 0.0 1021372
12:00−14w588864 0.0 1022455
15:00−12w5787100 0.0 1023601
18:00−15w339095 0.0 102421
21:00−17sw23890 0.0 102620